Flag for Honduras Weather past 2 weeks in San Pedro Sula, Honduras

Now
90 °F

Broken clouds.


Feels Like: 103 °F
Forecast: N/A
Wind: 16 mph from North

Location: La Mesa San Pedro Sula

Current Time: Jul 7, 2015 at 3:56:12 PM

Latest Report: Jul 7, 2015 at 3:00 PM


Visibility: N/A

Pressure: 29.92 "Hg

Humidity: 67%

Dew point: 77 °F

Location of San Pedro SulaLocation

Historic Weather in San Pedro Sula — Graph

°F

San Pedro Sula temperature yesterday

Maximum temperature yesterday: 91 °F (at 12:00 PM)
Minimum temperature yesterday: 75 °F (at 6:00 AM)
Average temperature yesterday: 84 °F

Past Weeks' High & Low Weather Summary

 TemperatureHumidityPressure
High91 °F (Jun 27, 1:00 PM)100% (Jun 22, 11:00 PM)30.04 "Hg (Jun 22, 11:00 PM)
Low73 °F (Jun 23, 4:00 AM)56% (Jul 1, 1:00 PM)29.83 "Hg (Jul 2, 2:00 PM)
Average82 °F89%29.95 "Hg
* Reported Jun 22 2:00 PM — Jul 7 2:00 PM, San Pedro Sula, Weather by CustomWeather, © 2015

Note: Actual official high and low records may vary slightly from our data, if they occured in-between our weather recording intervals... More about our weather records

Advertising

San Pedro Sula weather history for previous 24 hours

 ConditionsComfort  
Time TempWeatherWind HumidityBarometerVisibility
2:00 PM
Tue, Jul 7
90 °FBroken clouds.14 mph67%29.95 "HgN/A
1:00 PM90 °FBroken clouds.12 mph63%29.98 "HgN/A
12:00 PM91 °FBroken clouds.8 mph56%30.01 "HgN/A
11:00 AM90 °FBroken clouds.5 mph63%30.01 "HgN/A
10:00 AM88 °FPartly sunny.5 mph70%30.01 "HgN/A
9:00 AM84 °FPartly sunny.2 mph89%30.04 "HgN/A
8:00 AM81 °FPartly sunny.No wind100%30.01 "HgN/A
7:00 AM77 °FPartly sunny.No wind100%30.01 "HgN/A
6:00 AM73 °FFog.No wind100%30.01 "Hg4 mi
5:00 AM75 °FPartly cloudy.3 mph100%29.98 "HgN/A
3:00 AM75 °FPassing clouds.No wind100%29.95 "HgN/A
2:00 AM77 °FPassing clouds.No wind100%29.95 "HgN/A
12:00 AM79 °FPassing clouds.No wind100%29.98 "HgN/A
9:00 PM
Mon, Jul 6
81 °FPassing clouds.9 mph94%29.98 "HgN/A
8:00 PM82 °FPassing clouds.9 mph89%29.98 "HgN/A
7:00 PM82 °FPassing clouds.12 mph89%29.95 "HgN/A
6:00 PM84 °FPartly sunny.15 mph84%29.95 "HgN/A
5:00 PM86 °FBroken clouds.14 mph79%29.92 "HgN/A
4:00 PM88 °FThunderstorms. Scattered clouds.21 mph75%29.95 "HgN/A
3:00 PM90 °FScattered clouds.20 mph71%29.95 "HgN/A
Weather by CustomWeather, © 2015

See weather overviewHow to use our weather pages